星链-2618 (STARLINK-2618 )

导读 | 星芒AI

STARLINK-2618 是 SpaceX Starlink 项目中的一颗低轨通信卫星,旨在为全球用户提供高速互联网服务。该卫星于2023年发射,运行在约550公里高度的近地轨道,采用先进的推进和通信技术,具备高带宽和低延迟特性。作为 Starlink 卫星群的一部分,它支持全球范围内的宽带接入,特别是在偏远和网络基础设施薄弱的地区。该卫星设计寿命约为5至7年,具备自主变轨和避撞能力,有助于提升星座整体的稳定性和效率。

基本信息
目录编号:
48693
目录名称:
STARLINK-2618
国际标识:
2021-044BH
轨道中心:
EARTH
卫星名称:
星链-2618
卫星全名:
星链-2618 (STARLINK-2618 )
卫星状态:
在轨 (已飞行1667 天)
发射日期:
2021-05-26 UTC
国别 :
美国 (US)
星等 :
--
轨道信息
数据来源 国际轨道数据
星历时间: 2025-12-17T22:13:37+0800
16小时前
查看轨道信息
半长轴: 6925.324km
偏心率: 0.0001008
轨道倾角: 53.056°
近地点辐角 81.200°
升交点赤经 90.166°
平近点角 278.911°
近地点: 546.49km
远地点: 547.888km
周期: 95.592分钟
每日圈数: 15.064083
详细信息
固有亮度:
5
最大亮度:
2.5
卫星平台:
Starlink v1.5
覆盖范围:
全球
运营商:
太空探索技术公司
运营商所在国:
美国
制造商(研发单位):
太空探索技术公司
制造商所在国:
美国
使用方式:
暂无
卫星简介
星链(Starlink)计划是由太空探索技术公司(SpaceX)提出的一个巨型低轨卫星互联网星座项目,计划在2019年至2024年间在太空搭建由约1.2万颗卫星组成的“星链”网络,其中1584颗将部署在地球上空550千米处的近地轨道,并从2020年开始工作。该卫星仍在工作。
2D轨道图
3D轨道图
轨道高度分析图
轨道倾角分析图
轨道综合分析图
查看轨道综合分析图